Flag for China Weather past 2 weeks in Tsingtao, Shandong, China

Now
48 °F

Light rain. Fog.


Feels Like: 44 °F
Forecast: 48 / 62 °F
Wind: 10 mph from North

Location: Qingdao Airport

Current Time: Apr 19, 2015 at 10:35:45 PM

Latest Report: Apr 19, 2015 at 10:00 PM


Visibility: 3 mi

Pressure: 29.89 "Hg

Humidity: 87%

Dew point: 45 °F

Location of TsingtaoLocation

Historic Weather in Tsingtao — Graph

°F

Tsingtao temperature yesterday

Maximum temperature yesterday: 68 °F (at 12:00 PM)
Minimum temperature yesterday: 52 °F (at 5:00 AM)
Average temperature yesterday: 58 °F

Past Weeks' High & Low Weather Summary

 TemperatureHumidityPressure
High72 °F (Apr 15, 1:00 PM)94% (Apr 13, 12:00 PM)30.48 "Hg (Apr 13, 12:00 PM)
Low30 °F (Apr 8, 6:00 AM)13% (Apr 16, 1:00 PM)29.56 "Hg (Apr 15, 6:00 PM)
Average53 °F51%30.06 "Hg
* Reported Apr 4 9:00 PM — Apr 19 9:00 PM, Tsingtao, Weather by CustomWeather, © 2015

Note: Actual official high and low records may vary slightly from our data, if they occured in-between our weather recording intervals... More about our weather records

Advertising

Tsingtao weather history for previous 24 hours

 ConditionsComfort  
Time TempWeatherWind HumidityBarometerVisibility
9:00 PM
Sun, Apr 19
48 °FLight rain. Mostly cloudy.8 mph87%29.86 "Hg4 mi
8:00 PM50 °FLight rain. Mostly cloudy.8 mph88%29.86 "Hg4 mi
7:00 PM50 °FLight rain. Mostly cloudy.15 mph88%29.86 "Hg4 mi
6:00 PM52 °FLight rain. Clear.15 mph82%29.83 "HgN/A
5:00 PM52 °FLight rain. Overcast.20 mph77%29.80 "HgN/A
4:00 PM55 °FLight rain. Overcast.20 mph55%29.80 "HgN/A
3:00 PM57 °FOvercast.20 mph48%29.80 "HgN/A
2:00 PM59 °FOvercast.15 mph55%29.77 "HgN/A
1:00 PM57 °FOvercast.13 mph55%29.80 "HgN/A
12:00 PM57 °FOvercast.10 mph55%29.77 "HgN/A
11:00 AM55 °FLight rain. Overcast.15 mph55%29.80 "HgN/A
10:00 AM55 °FOvercast.15 mph47%29.80 "HgN/A
9:00 AM55 °FMore clouds than sun.13 mph72%29.80 "HgN/A
8:00 AM54 °FMore clouds than sun.10 mph82%29.80 "Hg4 mi
7:00 AM52 °FFog.8 mph94%29.80 "Hg2 mi
6:00 AM52 °FFog.13 mph94%29.77 "Hg3 mi
5:00 AM52 °FFog.13 mph94%29.74 "Hg3 mi
4:00 AM52 °FLight rain. Partly cloudy.10 mph88%29.74 "Hg4 mi
3:00 AM52 °FPassing clouds.8 mph88%29.77 "HgN/A
2:00 AM54 °FPassing clouds.3 mph82%29.77 "HgN/A
1:00 AM54 °FPassing clouds.6 mph82%29.80 "HgN/A
12:00 AM52 °FPassing clouds.6 mph88%29.80 "HgN/A
11:00 PM
Sat, Apr 18
54 °FPassing clouds.6 mph82%29.80 "HgN/A
10:00 PM55 °FPassing clouds.6 mph77%29.80 "HgN/A
Weather by CustomWeather, © 2015

See weather overviewHow to use our weather pages